TimeMDT,TemperatureF,Dew PointF,Humidity,Sea Level PressureIn,VisibilityMPH,Wind Direction,Wind SpeedMPH,Gust SpeedMPH,PrecipitationIn,Events,Conditions,WindDirDegrees,DateUTC
12:53 AM,30.0,19.0,64,29.82,10.0,NNE,9.2,-,N/A,,Scattered Clouds,30,2013-04-16 06:53:00
1:03 AM,30.2,19.4,64,29.79,10.0,NNE,8.1,-,N/A,,Mostly Cloudy,20,2013-04-16 07:03:00
1:42 AM,32.0,15.8,51,29.78,10.0,NE,13.8,23.0,N/A,,Overcast,40,2013-04-16 07:42:00
1:53 AM,32.0,16.0,52,29.81,10.0,NE,12.7,20.7,N/A,,Overcast,40,2013-04-16 07:53:00
2:53 AM,30.9,14.0,50,29.80,10.0,NE,18.4,25.3,N/A,,Overcast,40,2013-04-16 08:53:00
3:53 AM,28.9,12.0,49,29.80,10.0,NNE,17.3,28.8,N/A,,Overcast,30,2013-04-16 09:53:00
4:53 AM,28.9,14.0,54,29.81,10.0,NE,13.8,21.9,N/A,,Overcast,40,2013-04-16 10:53:00
5:19 AM,26.6,17.6,69,29.79,10.0,NE,16.1,24.2,N/A,,Overcast,50,2013-04-16 11:19:00
5:53 AM,26.6,19.4,74,29.79,4.0,NE,13.8,23.0,N/A,Snow,Light Snow,40,2013-04-16 11:53:00
5:59 AM,26.6,19.4,74,29.79,2.5,NE,12.7,20.7,0.00,Snow,Light Snow,50,2013-04-16 11:59:00
6:23 AM,26.6,19.4,74,29.80,4.0,NNE,13.8,-,0.00,Snow,Light Snow,30,2013-04-16 12:23:00
6:53 AM,26.1,19.0,75,29.86,4.0,NE,11.5,18.4,0.00,Snow,Light Snow,40,2013-04-16 12:53:00
7:22 AM,24.8,19.4,80,29.83,1.8,NNE,17.3,25.3,0.00,Snow,Light Snow,30,2013-04-16 13:22:00
7:53 AM,25.0,19.9,81,29.91,1.8,NNE,15.0,24.2,0.00,Snow,Light Snow,20,2013-04-16 13:53:00
8:53 AM,26.1,19.0,75,29.94,2.5,NE,18.4,26.5,0.01,Snow,Light Snow,40,2013-04-16 14:53:00
9:31 AM,28.4,17.6,64,29.87,4.0,NNE,20.7,25.3,0.00,Snow,Light Snow,30,2013-04-16 15:31:00
9:53 AM,28.0,21.0,75,29.95,4.0,NE,10.4,-,0.00,Snow,Light Snow,40,2013-04-16 15:53:00
10:53 AM,30.0,19.0,64,29.96,4.0,NE,17.3,26.5,0.00,,Haze,40,2013-04-16 16:53:00
11:53 AM,34.0,19.0,54,29.94,10.0,NNE,15.0,20.7,0.00,,Overcast,30,2013-04-16 17:53:00
12:53 PM,37.0,16.0,42,29.92,10.0,North,12.7,26.5,N/A,,Mostly Cloudy,360,2013-04-16 18:53:00
1:53 PM,42.1,15.1,34,29.90,10.0,North,16.1,26.5,N/A,,Mostly Cloudy,360,2013-04-16 19:53:00
2:53 PM,43.0,12.0,28,29.90,10.0,North,16.1,25.3,N/A,,Mostly Cloudy,360,2013-04-16 20:53:00
3:53 PM,44.1,10.9,26,29.90,10.0,NE,13.8,26.5,N/A,,Mostly Cloudy,40,2013-04-16 21:53:00
4:53 PM,44.1,10.9,26,29.92,10.0,North,17.3,23.0,N/A,,Mostly Cloudy,10,2013-04-16 22:53:00
5:53 PM,43.0,10.0,26,29.94,10.0,North,19.6,24.2,N/A,,Mostly Cloudy,10,2013-04-16 23:53:00
6:53 PM,42.1,9.0,26,29.97,10.0,North,21.9,27.6,N/A,,Mostly Cloudy,10,2013-04-17 00:53:00
7:53 PM,39.0,9.0,29,30.00,10.0,NNE,18.4,27.6,N/A,,Mostly Cloudy,20,2013-04-17 01:53:00
8:53 PM,35.1,9.0,34,30.03,10.0,NNE,16.1,21.9,N/A,,Mostly Cloudy,20,2013-04-17 02:53:00
9:53 PM,32.0,8.1,37,30.07,10.0,NNE,13.8,23.0,N/A,,Clear,20,2013-04-17 03:53:00
10:53 PM,30.0,8.1,40,30.09,10.0,NNE,12.7,-,N/A,,Clear,20,2013-04-17 04:53:00
11:53 PM,28.9,8.1,41,30.10,10.0,NNE,11.5,-,N/A,,Scattered Clouds,20,2013-04-17 05:53:00